Погода Костанай

Погода Костанай : погода сейчас, прогноз погоды и архив. Всё, что Вы хотите узнать о погоде Костанай!

Хотите узнать прогноз погоды в Костанае? Тогда Вам сюда: Погода в Костанае

Поиск расширенной информации на нашем сайте:

Другие новости

Новости СМИ2

Главная страница сайта

Новости сайта

03.07.2017

Напоминаем, что на нашем специализированном сайте Метеоцентр.Азия вы можете получить высокодетализированные автоматические прогнозы погоды по пунктам России, СНГ и мира в авиационном формате (включающие направление и скорость ветра, видимость, явления погоды, количество и форму облачности, нижнюю и верхнюю границу облачности).


Погода Костанай - сегодня

Время (UTC), дата Ветер
(°,м/с) 
Видим.   Явления Облачность Т
(°С)
Тd
(°С)
f(%) Тe
(°С)
Pmin
(гПа)
dP
(гПа)
Po
(мм)
O2
(г/м3)
Тmin Tmax R s Состояние
почвы
21 16.02.18 тихо ()   н/о  слаб. снег  10/0 средняя 
[As op]
-16.5 -17.8 90 -17  1041.2  0.5  765  330           
03 17.02.18 тихо ()   4000 м  дымка{туман}  10/0 средняя 
[As op]
-15 -16.3 90 -15  1042.1  0.4  766  328      0.0  13  равномерный
сухой снег
100% 
09 17.02.18 270 (З) 20000 м    6/0 верхняя 
[Ci]
-8.2 -12.4 72 -8  1041.6  -0.4  766  319           
12 17.02.18 270 (З) 20000 м    8/0 верхняя 
[Ci]
-6.7 -12.3 64 -6  1041.4  -0.1  766  318           
15 17.02.18 270 (З) н/о    9/0 верхняя 
[Ci]
-16.2 -18.8 80 -16  1042.4  0.2  766  330    -6.7       
18 17.02.18 270 (З) н/о    9/0 верхняя 
[Ci]
-18.9 -21.5 80 -19  1042.3  -0.2  766  333    -6.7       
21 17.02.18 270 (З) н/о    9/0 верхняя 
[Ci]
-19.7 -22.3 80 -20  1041.9  -0.4  766  334           
00 18.02.18 230 (ЮЗ) н/о    9/0 верхняя 
[Ci]
-20.4 -22.3 85 -21  1042.1  766  335           
06 18.02.18 180 (Ю) 20000 м    ясно 
-17.2 -19.8 80 -20  1041.9  766  331  -21.5         
09 18.02.18 160 (Ю) 20000 м    ясно 
-12.2 -16.5 70 -14  1041.1  -0.4  765  324           
12 18.02.18 180 (Ю) 20000 м    ясно 
-10.1 -14.5 70 -10  1040.4  -0.4  765  321           
15 18.02.18 180 (Ю) н/о    ясно 
-14.6 -18.1 75 -15  1041  0.1  765  327    -8.4       
18 18.02.18 180 (Ю) н/о    ясно 
-16.3 -18.9 80 -16  1040.6  -0.6  765  329    -8.4       
21 18.02.18 180 (Ю) н/о    ясно 
-18.1 -20.7 80 -21  1040.3  -0.4  764  332           
00 19.02.18 180 (Ю) н/о    ясно 
-18.4 -20.3 85 -21  1040.7  0.4  765  332           
03 19.02.18 160 (Ю) 20000 м  в посл. час снег  10/0 средняя 
[Ac As]
-19.7 -20.9 90 -22  1040.5  -0.2  765  334      0.0  13  равномерный
сухой снег
100% 
09 19.02.18 180 (Ю) 20000 м    10/0 средняя 
[As trans]
-14 -17.5 75 -18  1038.8  -0.5  764  326           
12 19.02.18 160 (Ю) 20000 м    8/3 600 м средняя 
[Sc|Ac trans]
-12.1 -15.6 75 -14  1037.5  -1.1  763  323           
15 19.02.18 140 (ЮВ) н/о    9/0 средняя, верхняя 
[Ac trans|Ci]
-15 -17.7 80 -15  1036.5  -1.3  762  326    -12.1       
18 19.02.18 160 (Ю) н/о    9/0 средняя 
[Ac trans]
-15.2 -18.6 75 -17  1035.2  -1.3  761  326    -12.1       
21 19.02.18 160 (Ю) н/о    9/0 средняя 
[Ac trans]
-14 -17.5 75 -14  1033.1  -1.9  760  324           
00 20.02.18 160 (Ю) н/о    8/0 средняя 
[Ac trans]
-15 -17.7 80 -17  1031.5  -1.7  758  325           
06 20.02.18 140 (ЮВ) 20000 м    9/0 средняя 
[Ac trans]
-12.3 -17.5 65 -12  1027.9  -1.7  756  320  -15.5         
09 20.02.18 140 (ЮВ) 20000 м    9/0 средняя 
[Ac trans]
-8.3 -14.6 60 -8  1025.2  -2.3  754  315           
12 20.02.18 140 (ЮВ) 20000 м    9/0 средняя 
[Ac trans]
-6.7 -13.9 57 -6  1023.2  -1.9  753  312           
Время (UTC), дата Ветер
(°,м/с) 
Видим.   Явления Облачность Т
(°С)
Тd
(°С)
f(%) Тe
(°С)
Pmin
(гПа)
dP
(гПа)
Po
(мм)
O2
(г/м3)
Тmin Tmax R s Состояние
почвы

Для получения пояснительной информации подведите курсор к названию столбца.

ПОГОДА Костанай - архив

Всё, что Вы хотите узнать о погоде Костанай - удобно и подробно!

Выберите нужную дату (начиная с 1 января 2015* года) и нажмите кнопку "Найти".
Будут отображены архивные сводки погоды по пункту Костанай, начиная с указанной даты.


Отображать данные в формате CSV (для использования в таблицах Excel)


Внимание! Наш архив погоды предназначен исключительно для личного некоммерческого использования в познавательных целях. Если Вам необходимы официальные справки о состоянии погоды (для производственных, юридических, коммерческих и т.п. целей), обращайтесь в органы Росгидромета.

*Примечание: данная дата относится к архиву по метеостанциям СССР (Россия, СНГ, Балтия).
Архив по метеостанциям Зарубежной Европы и Азии (кроме Китая) хранится 10 дней, по другим регионам земного шара (Китай, Африка, Америка, Австралия, Океания) - 1 день.

Костанай - район местоположения метеостанции


Название, широта, долгота, высота метеостанции:
Костанай (город) 53.2°ш. 63.6°д. 156 м над ур. моря [Казахстан]

Дополнительная информация

В oтличие oт бoльшинства пoгoдных сайтoв мы публикуем пoдрoбную метеoинфoрмацию в детальнoм прoфессиoнальнoм фoрмате.

Характеристики температуры и влажнoсти вoздуха измеряются на высoте 2 м в тени вдали oт зданий и деревьев.
Скoрoсть ветра измеряется на высoте 10 м (на урoвне рoста челoвека скoрoсть ветра ниже в 1.5-2 раза). Если метеoстанция нахoдится в гoрoде или в лесу, тo скoрoсть ветра занижена на 2-4 м/с пo сравнению с oткрытым местoм. Скoрoсть ветра над акватoриями крупных рек и oзёр, а также на вершинах хoлмoв на 2-5 м/с выше, чем в oбычных услoвиях.
Атмoсфернoе давление в разных тoчках местнoсти мoжет значительнo oтличаться oт давления на метеoстанции, в зависимoсти oт услoвий рельефа (при пoдъёме на 10 м давление пoнижается примернo на 1 мм рт.ст.).